Weather History for Pittsfield, MA

Change the Weather History Date:

Monday, October 22, 2012

  Actual Average Record
Temperature  
Mean Temperature 53 °F 46 °F  
Max Temperature 60 °F 56 °F 78 °F (2007)
Min Temperature 45 °F 35 °F 19 °F (1948)
Degree Days  
Heating Degree Days 12 19  
Month to date heating degree days 307 355  
Since 1 July heating degree days 533 647  
Cooling Degree Days 0 0  
Month to date cooling degree days 0 0  
Year to date cooling degree days 465 289  
Growing Degree Days 4 (Base 50)    
Moisture  
Dew Point 42 °F    
Average Humidity 66    
Maximum Humidity 80    
Minimum Humidity 51    
Precipitation  
Precipitation 0.00 in 0.16 in 0.88 in (1929)
Month to date precipitation 3.06 3.69  
Year to date precipitation 30.48 37.43  
Sea Level Pressure  
Sea Level Pressure 29.96 in    
Wind  
Wind Speed 10 mph (WNW)    
Max Wind Speed 25 mph    
Max Gust Speed 35 mph    
Visibility 10 miles    
Events      
T = Trace of Precipitation, MM = Missing Value Source: NWS Daily Summary

Daily Weather History Graph

Daily Weather History Graph

Search for Another Location

Airport:

Trip Planner

Search our weather history database for the weather conditions in past years. The results will help you decide how hot, cold, wet, or windy it might be!

Date:

Astronomy

Oct. 22, 2012 Rise Set
Actual Time 7:14 AM EDT 5:59 PM EDT
Civil Twilight 6:46 AM EDT 6:28 PM EDT
Nautical Twilight 6:13 AM EDT 7:00 PM EDT
Astronomical Twilight 5:40 AM EDT 7:33 PM EDT
Moon 2:13 PM EDT (10/22) No Moon Set
Length of Visible Light 11h 41m
Length of Day
10h 44m
First Quarter, 56% of the Moon is Illuminated
Oct 22
First Quarter
Oct 29
Full
Nov 6
Last Quarter
Nov 13
New
Nov 20
First Quarter

Hourly Weather History & Observations

Time (EDT) Temp. Windchill Dew Point Humidity Pressure Visibility Wind Dir Wind Speed Gust Speed Precip Events Conditions
12:54 AM 51.1 °F - 41.0 °F 68% 29.90 in 10.0 mi West 9.2 mph - N/A   Overcast
1:54 AM 50.0 °F - 42.1 °F 74% 29.91 in 10.0 mi WNW 13.8 mph 21.9 mph N/A   Clear
2:54 AM 48.9 °F - 43.0 °F 80% 29.91 in 10.0 mi West 15.0 mph 23.0 mph N/A   Scattered Clouds
3:03 AM 48.2 °F - 42.8 °F 82% 29.94 in 10.0 mi West 15.0 mph 20.7 mph N/A   Mostly Cloudy
3:54 AM 48.9 °F - 43.0 °F 80% 29.92 in 10.0 mi West 10.4 mph 21.9 mph N/A   Mostly Cloudy
4:54 AM 48.9 °F - 43.0 °F 80% 29.93 in 10.0 mi West 6.9 mph - N/A   Overcast
5:54 AM 48.9 °F - 42.1 °F 77% 29.94 in 10.0 mi Variable 6.9 mph 18.4 mph N/A   Overcast
6:54 AM 48.0 °F - 42.1 °F 80% 29.96 in 10.0 mi West 8.1 mph 17.3 mph N/A   Overcast
8:21 AM 48.2 °F - 42.8 °F 82% 30.00 in 10.0 mi West 9.2 mph 20.7 mph N/A   Overcast
8:54 AM 48.9 °F - 42.1 °F 77% 29.99 in 10.0 mi West 9.2 mph 18.4 mph N/A   Mostly Cloudy
9:54 AM 50.0 °F - 42.1 °F 74% 29.99 in 10.0 mi West 13.8 mph 25.3 mph N/A   Overcast
10:54 AM 51.1 °F - 42.1 °F 71% 29.99 in 10.0 mi WNW 8.1 mph 24.2 mph N/A   Overcast
11:36 AM 53.6 °F - 42.8 °F 67% 30.01 in 10.0 mi NW 10.4 mph 18.4 mph N/A   Overcast
11:54 AM 54.0 °F - 42.1 °F 64% 29.98 in 10.0 mi West 13.8 mph 17.3 mph N/A   Overcast
12:54 PM 55.9 °F - 41.0 °F 57% 29.96 in 10.0 mi NW 10.4 mph 24.2 mph N/A   Mostly Cloudy
1:55 PM 59.0 °F - 41.0 °F 51% 29.94 in 10.0 mi WNW 16.1 mph 31.1 mph N/A   Unknown
2:54 PM 59.0 °F - 42.1 °F 53% 29.94 in 10.0 mi WNW 11.5 mph 24.2 mph N/A   Scattered Clouds
3:54 PM 59.0 °F - 42.1 °F 53% 29.93 in 10.0 mi WNW 12.7 mph 25.3 mph N/A   Clear
4:54 PM 59.0 °F - 42.1 °F 53% 29.93 in 10.0 mi WNW 18.4 mph 25.3 mph N/A   Clear
5:54 PM 55.9 °F - 42.1 °F 60% 29.95 in 10.0 mi West 11.5 mph - N/A   Clear
6:54 PM 55.0 °F - 42.1 °F 62% 29.98 in 10.0 mi WNW 11.5 mph 20.7 mph N/A   Clear
7:54 PM 54.0 °F - 41.0 °F 62% 30.00 in 10.0 mi WNW 11.5 mph 18.4 mph N/A   Clear
8:54 PM 53.1 °F - 39.0 °F 59% 30.00 in 10.0 mi WNW 9.2 mph 21.9 mph N/A   Clear
9:54 PM 53.1 °F - 39.9 °F 61% 30.01 in 10.0 mi WNW 9.2 mph 19.6 mph N/A   Clear
10:54 PM 48.9 °F - 39.9 °F 71% 30.02 in 10.0 mi Calm Calm - N/A   Clear
11:54 PM 46.0 °F 44.8 °F 39.0 °F 76% 30.03 in 10.0 mi SSE 3.5 mph - N/A   Clear